Radiation Dose at Monitoring Post of Fukushima Daini Nuclear Power Station
Date,Time,MP-1(microSv/h),MP-2(microSv/h),MP-3(microSv/h),MP-4(microSv/h),MP-5(microSv/h),MP-6(microSv/h),MP-7(microSv/h),Wind Direction,Wind Velocity(m/s),Rain
2014/12/29,00:00,0.598,0.384,0.638,0.579,0.570,0.261,0.236,south-southwest,1.7,No
2014/12/29,00:10,0.598,0.383,0.638,0.579,0.568,0.260,0.235,south-southwest,0.9,No
2014/12/29,00:20,0.597,0.383,0.638,0.580,0.568,0.261,0.236,southwest,1.6,No
2014/12/29,00:30,0.597,0.382,0.638,0.580,0.568,0.261,0.236,south-southwest,1.7,No
2014/12/29,00:40,0.597,0.382,0.638,0.579,0.568,0.262,0.236,south-southwest,2.0,No
2014/12/29,00:50,0.596,0.383,0.638,0.580,0.569,0.261,0.236,south-southwest,2.1,No
2014/12/29,01:00,0.599,0.383,0.639,0.581,0.569,0.262,0.235,south-southwest,2.7,No
2014/12/29,01:10,0.597,0.384,0.639,0.581,0.567,0.259,0.237,south-southwest,2.0,No
2014/12/29,01:20,0.598,0.384,0.637,0.579,0.569,0.260,0.235,south-southwest,1.6,No
2014/12/29,01:30,0.594,0.383,0.638,0.580,0.569,0.262,0.236,south-southwest,3.7,No
2014/12/29,01:40,0.597,0.382,0.639,0.581,0.567,0.261,0.235,south-southwest,6.4,No
2014/12/29,01:50,0.598,0.384,0.639,0.582,0.570,0.261,0.236,south-southwest,4.7,No
2014/12/29,02:00,0.598,0.385,0.639,0.581,0.570,0.261,0.237,southwest,1.8,Yes
2014/12/29,02:10,0.599,0.385,0.639,0.581,0.569,0.261,0.237,northwest,1.9,Yes
2014/12/29,02:20,0.598,0.384,0.637,0.580,0.569,0.262,0.236,west-northwest,2.5,Yes
2014/12/29,02:30,0.598,0.384,0.639,0.582,0.569,0.262,0.236,northwest,3.4,Yes
2014/12/29,02:40,0.599,0.384,0.640,0.583,0.568,0.263,0.237,west-northwest,3.2,Yes
2014/12/29,02:50,0.599,0.386,0.640,0.582,0.570,0.264,0.238,west-southwest,3.3,Yes
2014/12/29,03:00,0.599,0.388,0.638,0.582,0.570,0.264,0.238,west-southwest,7.8,Yes
2014/12/29,03:10,0.600,0.387,0.642,0.583,0.571,0.266,0.240,west-southwest,5.8,Yes
2014/12/29,03:20,0.601,0.388,0.641,0.583,0.572,0.268,0.241,west-southwest,4.0,Yes
2014/12/29,03:30,0.600,0.388,0.642,0.583,0.571,0.266,0.241,west,2.4,Yes
2014/12/29,03:40,0.599,0.386,0.640,0.583,0.571,0.266,0.239,west,1.8,Yes
2014/12/29,03:50,0.598,0.385,0.638,0.581,0.571,0.265,0.239,west,1.3,Yes
2014/12/29,04:00,0.598,0.386,0.640,0.581,0.569,0.265,0.238,west-northwest,1.1,Yes
2014/12/29,04:10,0.598,0.386,0.637,0.581,0.569,0.264,0.237,west-northwest,1.2,Yes
2014/12/29,04:20,0.595,0.385,0.637,0.579,0.568,0.264,0.239,west-northwest,1.5,Yes
2014/12/29,04:30,0.595,0.384,0.636,0.579,0.569,0.264,0.236,west-southwest,1.0,Yes
2014/12/29,04:40,0.594,0.384,0.635,0.577,0.566,0.264,0.236,northeast,2.1,Yes
2014/12/29,04:50,0.594,0.384,0.632,0.577,0.566,0.262,0.236,north,1.3,Yes
2014/12/29,05:00,0.592,0.383,0.633,0.575,0.564,0.263,0.236,northwest,0.9,Yes
2014/12/29,05:10,0.594,0.383,0.633,0.574,0.566,0.263,0.236,-,CALM,Yes
2014/12/29,05:20,0.593,0.384,0.631,0.575,0.565,0.262,0.235,west-northwest,0.5,Yes
2014/12/29,05:30,0.592,0.383,0.629,0.573,0.564,0.262,0.234,north,0.6,Yes
2014/12/29,05:40,0.592,0.383,0.629,0.573,0.565,0.261,0.235,north,1.3,Yes
2014/12/29,05:50,0.591,0.382,0.629,0.570,0.563,0.261,0.234,north-northwest,3.0,Yes
2014/12/29,06:00,0.590,0.382,0.629,0.571,0.564,0.261,0.233,north,6.1,Yes
2014/12/29,06:10,0.588,0.382,0.629,0.570,0.564,0.259,0.234,north-northwest,4.9,Yes
2014/12/29,06:20,0.590,0.382,0.628,0.570,0.564,0.260,0.232,north-northwest,3.6,No
2014/12/29,06:30,0.590,0.380,0.626,0.571,0.563,0.260,0.232,north,3.3,Yes
2014/12/29,06:40,0.589,0.381,0.627,0.569,0.564,0.260,0.232,north,2.1,Yes
2014/12/29,06:50,0.590,0.381,0.628,0.572,0.564,0.260,0.233,north,2.0,Yes
2014/12/29,07:00,0.589,0.382,0.628,0.570,0.563,0.260,0.232,north-northwest,2.6,Yes
2014/12/29,07:10,0.589,0.382,0.626,0.570,0.562,0.260,0.232,north-northwest,3.2,Yes
2014/12/29,07:20,0.589,0.379,0.625,0.568,0.562,0.260,0.231,north-northwest,4.0,Yes
2014/12/29,07:30,0.588,0.380,0.623,0.569,0.563,0.260,0.232,north-northwest,2.8,Yes
2014/12/29,07:40,0.587,0.381,0.623,0.566,0.564,0.260,0.233,west-northwest,1.9,Yes
2014/12/29,07:50,0.586,0.382,0.621,0.567,0.564,0.260,0.233,west,8.4,Yes
2014/12/29,08:00,0.584,0.379,0.619,0.563,0.562,0.259,0.232,west,4.1,Yes
2014/12/29,08:10,0.584,0.379,0.619,0.563,0.560,0.260,0.231,north,2.7,Yes
2014/12/29,08:20,0.583,0.382,0.617,0.562,0.561,0.259,0.232,north-northwest,2.7,Yes
2014/12/29,08:30,0.582,0.380,0.616,0.561,0.561,0.259,0.231,north,3.3,Yes
2014/12/29,08:40,0.585,0.380,0.618,0.561,0.561,0.260,0.231,north-northwest,2.9,Yes
2014/12/29,08:50,0.585,0.382,0.615,0.560,0.562,0.260,0.230,north,3.3,Yes
2014/12/29,09:00,0.582,0.381,0.617,0.560,0.562,0.260,0.231,north,2.5,Yes
2014/12/29,09:10,0.583,0.380,0.616,0.561,0.563,0.261,0.231,west,2.9,Yes
2014/12/29,09:20,0.583,0.379,0.616,0.559,0.560,0.259,0.231,north,3.3,Yes
2014/12/29,09:30,0.581,0.378,0.614,0.558,0.561,0.259,0.230,north-northwest,2.9,Yes
2014/12/29,09:40,0.581,0.382,0.613,0.558,0.562,0.258,0.230,west-southwest,3.0,Yes
2014/12/29,09:50,0.581,0.379,0.613,0.558,0.559,0.257,0.229,west,3.1,Yes
2014/12/29,10:00,0.580,0.377,0.613,0.557,0.560,0.257,0.230,northeast,5.1,Yes
2014/12/29,10:10,0.581,0.378,0.611,0.557,0.561,0.256,0.228,north,2.6,Yes
2014/12/29,10:20,0.579,0.378,0.613,0.559,0.561,0.258,0.231,southwest,2.1,Yes
2014/12/29,10:30,0.580,0.378,0.611,0.555,0.562,0.257,0.228,west-northwest,1.2,Yes
2014/12/29,10:40,0.579,0.377,0.611,0.556,0.560,0.257,0.228,north,21.8,Yes
2014/12/29,10:50,0.579,0.378,0.613,0.554,0.560,0.255,0.228,west-northwest,8.1,Yes
2014/12/29,11:00,0.580,0.378,0.610,0.554,0.560,0.258,0.229,west-northwest,4.1,Yes
2014/12/29,11:10,0.581,0.378,0.612,0.554,0.561,0.257,0.229,north,4.6,Yes
2014/12/29,11:20,0.579,0.379,0.612,0.556,0.563,0.258,0.232,west-southwest,10.3,Yes
2014/12/29,11:30,0.582,0.379,0.612,0.555,0.563,0.258,0.231,west-northwest,8.9,Yes
2014/12/29,11:40,0.580,0.380,0.611,0.557,0.564,0.259,0.230,north-northwest,5.0,Yes
2014/12/29,11:50,0.583,0.381,0.614,0.557,0.563,0.259,0.233,west-northwest,19.5,Yes
2014/12/29,12:00,0.583,0.380,0.612,0.557,0.564,0.260,0.233,north,14.0,Yes
2014/12/29,12:10,0.581,0.381,0.614,0.558,0.565,0.260,0.232,north,7.3,Yes
2014/12/29,12:20,0.581,0.381,0.615,0.556,0.566,0.261,0.233,north,5.9,Yes
2014/12/29,12:30,0.582,0.381,0.612,0.558,0.566,0.261,0.234,north,5.0,Yes
2014/12/29,12:40,0.583,0.382,0.613,0.557,0.566,0.261,0.233,north-northwest,5.2,Yes
2014/12/29,12:50,0.584,0.382,0.615,0.558,0.565,0.260,0.233,north-northwest,5.6,Yes
2014/12/29,13:00,0.583,0.382,0.614,0.558,0.564,0.261,0.232,north-northwest,6.5,Yes
2014/12/29,13:10,0.583,0.382,0.613,0.556,0.566,0.260,0.233,north-northwest,6.5,Yes
2014/12/29,13:20,0.581,0.380,0.613,0.557,0.566,0.258,0.232,north,6.5,Yes
2014/12/29,13:30,0.582,0.379,0.612,0.557,0.564,0.259,0.231,north-northwest,7.3,Yes
2014/12/29,13:40,0.581,0.380,0.613,0.558,0.566,0.258,0.232,north-northwest,7.6,Yes
2014/12/29,13:50,0.580,0.379,0.612,0.557,0.565,0.259,0.232,north,7.7,Yes
2014/12/29,14:00,0.579,0.379,0.612,0.556,0.564,0.260,0.229,north,7.7,Yes
2014/12/29,14:10,0.580,0.378,0.613,0.556,0.564,0.257,0.230,north,7.2,Yes
2014/12/29,14:20,0.580,0.378,0.612,0.557,0.564,0.257,0.229,north,7.9,Yes
2014/12/29,14:30,0.581,0.379,0.615,0.558,0.565,0.257,0.229,north,8.2,Yes
2014/12/29,14:40,0.580,0.378,0.613,0.557,0.564,0.257,0.229,north-northwest,7.2,No
2014/12/29,14:50,0.578,0.377,0.612,0.557,0.563,0.255,0.227,north,7.3,No
2014/12/29,15:00,0.579,0.376,0.614,0.556,0.562,0.254,0.227,north-northwest,6.7,No
2014/12/29,15:10,0.579,0.376,0.614,0.557,0.562,0.254,0.226,north-northwest,7.3,No
2014/12/29,15:20,0.578,0.376,0.613,0.557,0.561,0.254,0.226,north-northwest,6.7,No
2014/12/29,15:30,0.578,0.374,0.614,0.557,0.562,0.253,0.225,north-northwest,7.7,No
2014/12/29,15:40,0.580,0.374,0.613,0.555,0.562,0.253,0.224,north-northwest,8.1,Yes
2014/12/29,15:50,0.579,0.375,0.613,0.557,0.560,0.253,0.225,north-northwest,8.5,Yes
2014/12/29,16:00,0.579,0.375,0.612,0.557,0.560,0.254,0.225,north-northwest,8.7,Yes
2014/12/29,16:10,0.580,0.375,0.614,0.557,0.562,0.254,0.224,north-northwest,9.4,Yes
2014/12/29,16:20,0.579,0.375,0.614,0.558,0.562,0.253,0.225,north-northwest,9.2,Yes
2014/12/29,16:30,0.579,0.376,0.614,0.557,0.560,0.253,0.224,north-northwest,9.0,No
2014/12/29,16:40,0.579,0.374,0.613,0.557,0.561,0.253,0.225,north-northwest,8.4,No
2014/12/29,16:50,0.579,0.372,0.613,0.558,0.559,0.251,0.223,north,8.1,No
2014/12/29,17:00,0.578,0.374,0.612,0.557,0.560,0.252,0.225,north-northwest,7.0,No
2014/12/29,17:10,0.578,0.373,0.613,0.557,0.558,0.251,0.223,north,6.5,No
2014/12/29,17:20,0.578,0.374,0.613,0.557,0.562,0.251,0.224,north,7.1,No
2014/12/29,17:30,0.579,0.374,0.615,0.558,0.561,0.252,0.225,north,7.6,No
2014/12/29,17:40,0.580,0.374,0.613,0.558,0.559,0.252,0.224,north,8.4,No
2014/12/29,17:50,0.580,0.373,0.613,0.559,0.559,0.251,0.224,north,7.3,No
2014/12/29,18:00,0.579,0.373,0.613,0.557,0.561,0.251,0.225,north-northwest,5.9,No
2014/12/29,18:10,0.580,0.373,0.613,0.558,0.559,0.252,0.224,north,6.1,No
2014/12/29,18:20,0.580,0.373,0.612,0.558,0.560,0.252,0.224,north,7.8,No
2014/12/29,18:30,0.580,0.373,0.613,0.557,0.560,0.252,0.224,north-northwest,7.7,No
2014/12/29,18:40,0.580,0.372,0.614,0.559,0.558,0.253,0.224,north,7.9,No
2014/12/29,18:50,0.579,0.373,0.615,0.557,0.560,0.254,0.224,north-northwest,6.5,No
2014/12/29,19:00,0.580,0.372,0.615,0.558,0.561,0.252,0.224,north-northwest,5.4,No
2014/12/29,19:10,0.580,0.373,0.615,0.557,0.560,0.251,0.223,northwest,5.4,No
2014/12/29,19:20,0.580,0.374,0.615,0.557,0.560,0.252,0.224,northwest,6.3,No
2014/12/29,19:30,0.580,0.373,0.614,0.557,0.561,0.252,0.224,northwest,5.7,No
2014/12/29,19:40,0.580,0.373,0.614,0.559,0.561,0.253,0.223,northwest,5.3,No
2014/12/29,19:50,0.582,0.374,0.612,0.557,0.562,0.253,0.224,north-northwest,6.5,No
2014/12/29,20:00,0.579,0.373,0.615,0.557,0.560,0.253,0.224,north-northwest,8.7,No
2014/12/29,20:10,0.580,0.374,0.615,0.559,0.559,0.252,0.225,north-northwest,7.3,No
2014/12/29,20:20,0.580,0.374,0.617,0.559,0.558,0.251,0.223,north-northwest,7.0,No
2014/12/29,20:30,0.580,0.373,0.616,0.561,0.560,0.252,0.224,north-northwest,6.9,No
2014/12/29,20:40,0.579,0.373,0.615,0.560,0.559,0.252,0.224,north-northwest,6.3,No
2014/12/29,20:50,0.582,0.374,0.614,0.561,0.558,0.251,0.223,north-northwest,7.5,No
2014/12/29,21:00,0.581,0.373,0.615,0.558,0.560,0.252,0.224,northwest,6.9,No
2014/12/29,21:10,0.579,0.373,0.614,0.559,0.559,0.252,0.224,northwest,7.3,No
2014/12/29,21:20,0.581,0.373,0.615,0.558,0.560,0.252,0.223,northwest,6.2,No
2014/12/29,21:30,0.582,0.373,0.614,0.559,0.559,0.253,0.225,west-northwest,6.2,No
2014/12/29,21:40,0.580,0.373,0.616,0.559,0.559,0.252,0.224,west-northwest,7.5,No
2014/12/29,21:50,0.583,0.373,0.616,0.559,0.558,0.252,0.225,west-northwest,7.3,No
2014/12/29,22:00,0.580,0.372,0.616,0.559,0.559,0.252,0.224,west-northwest,7.8,No
2014/12/29,22:10,0.580,0.375,0.616,0.560,0.560,0.251,0.224,west,7.7,No
2014/12/29,22:20,0.581,0.375,0.616,0.561,0.560,0.252,0.225,west-northwest,6.4,No
2014/12/29,22:30,0.583,0.373,0.616,0.560,0.560,0.252,0.224,west-northwest,7.4,No
2014/12/29,22:40,0.583,0.374,0.618,0.561,0.560,0.254,0.225,west-northwest,5.3,No
2014/12/29,22:50,0.582,0.374,0.617,0.560,0.562,0.253,0.224,west-northwest,5.8,No
2014/12/29,23:00,0.582,0.374,0.617,0.561,0.561,0.253,0.224,west-northwest,6.1,No
2014/12/29,23:10,0.581,0.375,0.617,0.559,0.561,0.252,0.225,west-northwest,5.4,No
2014/12/29,23:20,0.582,0.375,0.617,0.560,0.559,0.253,0.223,west-northwest,9.3,No
2014/12/29,23:30,0.581,0.374,0.617,0.560,0.560,0.253,0.225,west-northwest,9.3,No
2014/12/29,23:40,0.581,0.374,0.618,0.561,0.559,0.252,0.223,west-northwest,8.7,No
2014/12/29,23:50,0.582,0.373,0.619,0.561,0.560,0.254,0.222,west-northwest,8.0,No
